ALAS71 MRPV-MRTR

Flight info

Callsign ALAS71
Flight time N/A
Altitude 6500
Route GUACIMA OROTINA COSTA DEL PACIFICO ISLAS TORTUGAS
Aircraft DA40/L-SG/C

Departure

Time 2026-04-28 20:01
Airport Tobías Bolaños International Airport (MRPV)

Arrival

Time N/A
Airport Tambor Airport (MRTR)
Time Latitude Longitude Altitude Speed Heading
2026-04-28 19:32 9.95781 -84.13949 3252 ft 0 kts 184°
2026-04-28 19:43 9.95764 -84.13969 3252 ft 6 kts 275°
2026-04-28 19:43 9.95772 -84.14053 3251 ft 16 kts 276°
2026-04-28 19:43 9.95780 -84.14164 3249 ft 16 kts 275°
2026-04-28 19:43 9.95784 -84.14201 3248 ft 8 kts 277°
2026-04-28 19:44 9.95792 -84.14292 3246 ft 18 kts 274°
2026-04-28 19:44 9.95804 -84.14445 3244 ft 24 kts 274°
2026-04-28 19:44 9.95826 -84.14608 3244 ft 23 kts 270°
2026-04-28 19:44 9.95811 -84.14642 3243 ft 0 kts 154°
2026-04-28 19:58 9.95779 -84.14630 3245 ft 3 kts 150°
2026-04-28 19:58 9.95767 -84.14608 3242 ft 4 kts 94°
2026-04-28 19:58 9.95767 -84.14602 3243 ft 0 kts 93°
2026-04-28 19:58 9.95758 -84.14494 3243 ft 38 kts 94°
2026-04-28 19:59 9.95740 -84.14254 3249 ft 62 kts 91°
2026-04-28 19:59 9.95671 -84.13492 3509 ft 70 kts 86°
2026-04-28 20:00 9.95643 -84.13221 3616 ft 69 kts 88°
2026-04-28 20:01 9.95583 -84.12726 3709 ft 68 kts 88°
2026-04-28 20:01 9.95500 -84.12241 3900 ft 72 kts 89°
2026-04-28 20:01 9.95414 -84.11770 4046 ft 64 kts 75°
2026-04-28 20:01 9.95797 -84.11500 4143 ft 83 kts 11°
2026-04-28 20:02 9.96379 -84.11592 4385 ft 90 kts
2026-04-28 20:02 9.96920 -84.11899 4582 ft 105 kts 301°
2026-04-28 20:02 9.96920 -84.12756 4432 ft 136 kts 269°
2026-04-28 20:02 9.96880 -84.13729 4278 ft 145 kts 270°
2026-04-28 20:03 9.96868 -84.14707 4316 ft 130 kts 271°
2026-04-28 20:03 9.96857 -84.15632 4235 ft 131 kts 273°
2026-04-28 20:03 9.96805 -84.16582 4256 ft 133 kts 263°
2026-04-28 20:03 9.96589 -84.17478 4280 ft 126 kts 255°
2026-04-28 20:04 9.96537 -84.17702 4314 ft 124 kts 259°
2026-04-28 20:04 9.96179 -84.18112 4499 ft 95 kts 170°
2026-04-28 20:04 9.95754 -84.17729 4405 ft 88 kts 99°
2026-04-28 20:05 9.95766 -84.17121 4312 ft 88 kts 85°
2026-04-28 20:05 9.95831 -84.16514 4023 ft 85 kts 85°
2026-04-28 20:05 9.95814 -84.15932 3769 ft 80 kts 91°
2026-04-28 20:05 9.95782 -84.15373 3580 ft 74 kts 86°
2026-04-28 20:06 9.95770 -84.14902 3295 ft 60 kts 84°
2026-04-28 20:06 9.95783 -84.14566 3244 ft 20 kts
2026-04-28 20:06 9.95810 -84.14612 3243 ft 0 kts 184°
2026-04-28 20:06 9.95808 -84.14612 3243 ft 0 kts 185°